TimeAKST,TemperatureF,Dew PointF,Humidity,Sea Level PressureIn,VisibilityMPH,Wind Direction,Wind SpeedMPH,Gust SpeedMPH,PrecipitationIn,Events,Conditions,WindDirDegrees,DateUTC
12:13 AM,-18.4,-25.6,70,30.27,2.5,NE,19.6,-,0.00,Snow,Light Snow,50,2013-02-01 09:13:00
12:56 AM,-18.9,-24.9,74,30.30,2.0,Calm,Calm,-,0.00,Snow,Light Snow,0,2013-02-01 09:56:00
1:08 AM,-18.4,-25.6,70,30.29,1.8,Calm,Calm,-,0.00,Snow,Light Snow,0,2013-02-01 10:08:00
1:26 AM,-18.4,-25.6,70,30.30,2.0,Calm,Calm,-,0.00,Snow,Light Snow,0,2013-02-01 10:26:00
1:56 AM,-18.9,-24.9,74,30.32,1.8,Calm,Calm,-,0.00,Snow,Light Snow,0,2013-02-01 10:56:00
2:14 AM,-18.4,-25.6,70,30.31,1.8,Calm,Calm,-,0.00,Snow,Light Snow,0,2013-02-01 11:14:00
2:22 AM,-18.4,-23.8,76,30.32,-9999.0,Calm,Calm,-,0.00,Snow,Light Snow,0,2013-02-01 11:22:00
2:56 AM,-18.4,-25.6,70,30.31,-9999.0,Calm,Calm,-,N/A,Snow,Light Snow,0,2013-02-01 11:56:00
3:56 AM,-18.9,-24.9,74,30.34,-9999.0,Calm,Calm,-,0.00,,Overcast,0,2013-02-01 12:56:00
4:05 AM,-18.4,-25.6,70,30.33,-9999.0,Calm,Calm,-,N/A,,Overcast,0,2013-02-01 13:05:00
4:32 AM,-18.4,-25.6,70,30.33,-9999.0,Calm,Calm,-,N/A,,Overcast,0,2013-02-01 13:32:00
4:56 AM,-18.9,-24.9,74,30.35,-9999.0,Calm,Calm,-,0.00,Snow,Light Snow,0,2013-02-01 13:56:00
5:56 AM,-18.4,-25.6,70,30.34,-9999.0,Calm,Calm,-,N/A,,Overcast,0,2013-02-01 14:56:00
6:56 AM,-18.9,-24.9,74,30.38,-9999.0,Calm,Calm,-,0.00,,Overcast,0,2013-02-01 15:56:00
7:06 AM,-18.4,-25.6,70,30.36,2.5,Calm,Calm,-,0.00,,Haze,0,2013-02-01 16:06:00
7:16 AM,-18.4,-25.6,70,30.36,3.0,Calm,Calm,-,0.00,,Haze,0,2013-02-01 16:16:00
7:56 AM,-19.8,-26.0,73,30.37,4.0,Calm,Calm,-,0.00,,Haze,0,2013-02-01 16:56:00
8:56 AM,-19.8,-26.0,73,30.37,5.0,Calm,Calm,-,N/A,,Haze,0,2013-02-01 17:56:00
9:56 AM,-19.8,-26.0,73,30.39,8.0,Calm,Calm,-,N/A,,Partly Cloudy,0,2013-02-01 18:56:00
10:56 AM,-20.9,-27.9,70,30.39,8.0,Calm,Calm,-,N/A,,Clear,0,2013-02-01 19:56:00
11:56 AM,-22.0,-27.9,74,30.40,8.0,Calm,Calm,-,N/A,,Clear,0,2013-02-01 20:56:00
12:56 PM,-22.0,-27.9,74,30.39,5.0,Calm,Calm,-,N/A,,Haze,0,2013-02-01 21:56:00
1:42 PM,-20.2,-27.4,69,30.37,2.0,Calm,Calm,-,N/A,,Haze,0,2013-02-01 22:42:00
1:56 PM,-20.9,-26.9,74,30.38,1.2,Calm,Calm,-,N/A,,Haze,0,2013-02-01 22:56:00
2:04 PM,-20.2,-27.4,69,30.36,1.0,Calm,Calm,-,N/A,,Haze,0,2013-02-01 23:04:00
2:14 PM,-20.2,-27.4,69,30.36,1.2,Calm,Calm,-,N/A,,Haze,0,2013-02-01 23:14:00
2:21 PM,-20.2,-27.4,69,30.36,1.5,Calm,Calm,-,N/A,,Haze,0,2013-02-01 23:21:00
2:33 PM,-20.2,-27.4,69,30.36,1.2,Calm,Calm,-,N/A,,Haze,0,2013-02-01 23:33:00
2:56 PM,-20.2,-27.4,69,30.36,1.2,Calm,Calm,-,N/A,,Haze,0,2013-02-01 23:56:00
3:07 PM,-20.2,-27.4,69,30.36,1.5,Calm,Calm,-,N/A,,Haze,0,2013-02-02 00:07:00
3:23 PM,-20.2,-27.4,69,30.35,1.2,Calm,Calm,-,N/A,,Haze,0,2013-02-02 00:23:00
3:56 PM,-22.0,-27.9,74,30.36,-9999.0,Calm,Calm,-,N/A,,Clear,0,2013-02-02 00:56:00
4:56 PM,-18.9,-24.9,74,30.34,-9999.0,Calm,Calm,-,N/A,,Clear,0,2013-02-02 01:56:00
5:56 PM,-18.4,-25.6,70,30.32,-9999.0,Calm,Calm,-,N/A,,Clear,0,2013-02-02 02:56:00
6:56 PM,-18.9,-24.9,74,30.32,-9999.0,Calm,Calm,-,N/A,,Clear,0,2013-02-02 03:56:00
7:56 PM,-18.9,-24.9,74,30.30,-9999.0,Calm,Calm,-,0.00,Snow,Light Snow,0,2013-02-02 04:56:00
8:56 PM,-18.4,-23.8,76,30.27,-9999.0,Calm,Calm,-,N/A,Snow,Light Snow,0,2013-02-02 05:56:00
9:12 PM,-18.4,-23.8,76,30.27,-9999.0,Calm,Calm,-,0.00,Snow,Light Snow,0,2013-02-02 06:12:00
9:56 PM,-17.9,-24.0,74,30.26,-9999.0,ENE,21.9,25.3,0.00,Snow,Light Snow,60,2013-02-02 06:56:00
10:29 PM,-18.4,-25.6,70,30.25,-9999.0,Calm,Calm,-,0.00,,Overcast,0,2013-02-02 07:29:00
10:56 PM,-19.8,-26.0,73,30.26,-9999.0,Calm,Calm,-,0.00,Snow,Light Snow,0,2013-02-02 07:56:00
11:56 PM,-22.0,-27.4,76,30.24,-9999.0,Calm,Calm,-,N/A,Snow,Light Snow,0,2013-02-02 08:56:00